EZY2830 LGSK-EGGD

Flight info

Callsign EZY2830
Flight time 3h 24m
Altitude 34000
Route IBIDI UL617 MAKED DCT LONTA UL608 DOLEV DCT PODOB DCT BOSNA DCT OKSIG DCT KOMAR DCT KUSIB DCT GORPA DCT ERKIR L608 LIRSU DCT SPI DCT BUB L608 DENUT L610 KOPUL Q63 ICTAM L179 SAWPE
Aircraft A320/M-SDE2E3FGHIJ1RWXYZ/LB1

Departure

Time 2026-05-07 09:37
Airport Skiathos Island National Airport (LGSK)

Arrival

Time 2026-05-07 13:01
Airport Bristol Airport (EGGD)
Time Latitude Longitude Altitude Speed Heading
2026-05-07 09:27 39.17949 23.50259 40 ft 0 kts 289°
2026-05-07 09:30 39.17946 23.50269 39 ft 4 kts 288°
2026-05-07 09:30 39.17939 23.50302 39 ft 4 kts 278°
2026-05-07 09:30 39.17938 23.50336 39 ft 4 kts 248°
2026-05-07 09:30 39.17948 23.50353 40 ft 0 kts 199°
2026-05-07 09:32 39.17935 23.50347 40 ft 8 kts 198°
2026-05-07 09:32 39.17863 23.50315 39 ft 13 kts 200°
2026-05-07 09:32 39.17771 23.50275 39 ft 14 kts 199°
2026-05-07 09:32 39.17704 23.50299 39 ft 10 kts 114°
2026-05-07 09:33 39.17660 23.50342 41 ft 9 kts 184°
2026-05-07 09:33 39.17602 23.50320 41 ft 10 kts 199°
2026-05-07 09:33 39.17535 23.50290 40 ft 10 kts 199°
2026-05-07 09:33 39.17474 23.50262 36 ft 9 kts 199°
2026-05-07 09:34 39.17414 23.50235 37 ft 10 kts 199°
2026-05-07 09:34 39.17344 23.50205 32 ft 12 kts 198°
2026-05-07 09:34 39.17252 23.50165 28 ft 15 kts 198°
2026-05-07 09:34 39.17144 23.50121 21 ft 17 kts 197°
2026-05-07 09:35 39.17070 23.50089 17 ft 10 kts 181°
2026-05-07 09:35 39.17042 23.50096 14 ft 5 kts 165°
2026-05-07 09:35 39.17014 23.50079 10 ft 0 kts 238°
2026-05-07 09:35 39.17015 23.50066 10 ft 4 kts 285°
2026-05-07 09:36 39.17030 23.50063 11 ft 3 kts 21°
2026-05-07 09:36 39.17035 23.50067 12 ft 0 kts 20°
2026-05-07 09:36 39.17129 23.50109 23 ft 47 kts 19°
2026-05-07 09:37 39.17680 23.50354 41 ft 119 kts 19°
2026-05-07 09:37 39.18628 23.50772 242 ft 158 kts 18°
2026-05-07 09:37 39.19729 23.51266 702 ft 181 kts 19°
2026-05-07 09:37 39.20995 23.51730 1262 ft 197 kts
2026-05-07 09:38 39.22385 23.51820 1733 ft 206 kts 353°
2026-05-07 09:38 39.23897 23.51446 1786 ft 238 kts 345°
2026-05-07 09:38 39.25574 23.50866 2167 ft 258 kts 343°
2026-05-07 09:38 39.27328 23.50225 2872 ft 265 kts 343°
2026-05-07 09:39 39.29117 23.49575 3628 ft 270 kts 343°
2026-05-07 09:39 39.30939 23.48931 4411 ft 273 kts 344°
2026-05-07 09:39 39.32790 23.48292 5179 ft 277 kts 344°
2026-05-07 09:39 39.34664 23.47659 5972 ft 279 kts 344°
2026-05-07 09:40 39.36552 23.47030 6753 ft 282 kts 344°
2026-05-07 09:40 39.38431 23.46407 7498 ft 283 kts 344°
2026-05-07 09:40 39.40346 23.45776 8259 ft 285 kts 344°
2026-05-07 09:40 39.42276 23.45142 9022 ft 287 kts 344°
2026-05-07 09:41 39.44218 23.44505 9786 ft 289 kts 344°
2026-05-07 09:41 39.46183 23.43856 10339 ft 299 kts 344°
2026-05-07 09:41 39.48271 23.43161 10506 ft 321 kts 344°
2026-05-07 09:41 39.50500 23.42420 10815 ft 337 kts 344°
2026-05-07 09:42 39.52788 23.41662 11399 ft 342 kts 343°
2026-05-07 09:42 39.55105 23.40895 12031 ft 345 kts 343°
2026-05-07 09:42 39.57445 23.40120 12660 ft 349 kts 343°
2026-05-07 09:42 39.59805 23.39334 13303 ft 352 kts 343°
2026-05-07 09:43 39.62187 23.38540 13928 ft 355 kts 342°
2026-05-07 09:43 39.64592 23.37738 14484 ft 358 kts 343°
2026-05-07 09:43 39.67018 23.36931 15024 ft 361 kts 343°
2026-05-07 09:43 39.69463 23.36119 15572 ft 364 kts 343°
2026-05-07 09:44 39.71930 23.35296 16116 ft 367 kts 343°
2026-05-07 09:44 39.74376 23.34330 16645 ft 368 kts 337°
2026-05-07 09:44 39.76786 23.33154 17185 ft 371 kts 337°
2026-05-07 09:44 39.79179 23.31984 17705 ft 374 kts 337°
2026-05-07 09:45 39.81625 23.30785 18235 ft 377 kts 337°
2026-05-07 09:45 39.84086 23.29578 18708 ft 380 kts 337°
2026-05-07 09:45 39.86566 23.28361 19163 ft 382 kts 337°
2026-05-07 09:45 39.89061 23.27134 19618 ft 384 kts 337°
2026-05-07 09:46 39.91569 23.25905 20074 ft 386 kts 337°
2026-05-07 09:46 39.94094 23.24670 20510 ft 389 kts 337°
2026-05-07 09:46 39.96631 23.23428 20935 ft 391 kts 337°
2026-05-07 09:46 39.99187 23.22175 21356 ft 394 kts 337°
2026-05-07 09:47 40.01758 23.20909 21774 ft 396 kts 337°
2026-05-07 09:47 40.04340 23.19633 22189 ft 398 kts 336°
2026-05-07 09:47 40.06943 23.18346 22588 ft 401 kts 336°
2026-05-07 09:47 40.09557 23.17053 22994 ft 403 kts 336°
2026-05-07 09:48 40.12190 23.15747 23391 ft 406 kts 336°
2026-05-07 09:48 40.14834 23.14437 23767 ft 408 kts 336°
2026-05-07 09:48 40.17499 23.13118 24091 ft 410 kts 336°
2026-05-07 09:48 40.20175 23.11796 24416 ft 412 kts 336°
2026-05-07 09:49 40.22831 23.10485 24730 ft 414 kts 336°
2026-05-07 09:49 40.25536 23.09146 25039 ft 417 kts 336°
2026-05-07 09:49 40.28252 23.07796 25354 ft 419 kts 336°
2026-05-07 09:49 40.30980 23.06434 25641 ft 421 kts 336°
2026-05-07 09:50 40.33725 23.05064 25955 ft 423 kts 336°
2026-05-07 09:50 40.36486 23.03688 26252 ft 425 kts 336°
2026-05-07 09:50 40.39259 23.02309 26549 ft 427 kts 336°
2026-05-07 09:50 40.42046 23.00923 26842 ft 430 kts 336°
2026-05-07 09:51 40.44850 22.99524 27134 ft 432 kts 335°
2026-05-07 09:51 40.47551 22.97829 27411 ft 431 kts 329°
2026-05-07 09:51 40.50203 22.95971 27693 ft 433 kts 329°
2026-05-07 09:51 40.52870 22.94099 27974 ft 435 kts 329°
2026-05-07 09:52 40.55547 22.92220 28254 ft 437 kts 329°
2026-05-07 09:52 40.58240 22.90329 28518 ft 440 kts 329°
2026-05-07 09:52 40.60944 22.88430 28790 ft 441 kts 328°
2026-05-07 09:52 40.63621 22.86549 29055 ft 443 kts 328°
2026-05-07 09:53 40.66346 22.84636 29319 ft 445 kts 328°
2026-05-07 09:53 40.69089 22.82711 29574 ft 447 kts 328°
2026-05-07 09:53 40.71840 22.80779 29823 ft 449 kts 328°
2026-05-07 09:53 40.74602 22.78839 30068 ft 451 kts 328°
2026-05-07 09:54 40.77376 22.76888 30302 ft 452 kts 328°
2026-05-07 09:54 40.80152 22.74934 30570 ft 452 kts 328°
2026-05-07 09:54 40.82926 22.72978 30898 ft 451 kts 328°
2026-05-07 09:54 40.85686 22.71028 31210 ft 450 kts 328°
2026-05-07 09:55 40.88441 22.69081 31510 ft 449 kts 328°
2026-05-07 09:55 40.91188 22.67138 31811 ft 448 kts 328°
2026-05-07 09:55 40.93931 22.65194 32125 ft 447 kts 328°
2026-05-07 09:55 40.96663 22.63251 32409 ft 446 kts 327°
2026-05-07 09:56 40.99390 22.61306 32690 ft 445 kts 327°
2026-05-07 09:56 41.02117 22.59361 32972 ft 445 kts 327°
2026-05-07 09:56 41.04839 22.57424 33251 ft 444 kts 327°
2026-05-07 09:56 41.07526 22.55513 33521 ft 444 kts 327°
2026-05-07 09:57 41.10245 22.53578 33792 ft 443 kts 327°
2026-05-07 09:57 41.12910 22.51548 34047 ft 440 kts 321°
2026-05-07 09:57 41.15338 22.49111 34292 ft 436 kts 317°
2026-05-07 09:57 41.17699 22.46593 34533 ft 435 kts 317°
2026-05-07 09:58 41.20061 22.44075 34773 ft 435 kts 316°
2026-05-07 09:58 41.22413 22.41562 34996 ft 433 kts 316°
2026-05-07 09:58 41.24756 22.39055 35244 ft 432 kts 316°
2026-05-07 09:58 41.27095 22.36551 35474 ft 431 kts 316°
2026-05-07 09:59 41.29429 22.34053 35676 ft 430 kts 316°
2026-05-07 09:59 41.31754 22.31563 35873 ft 429 kts 316°
2026-05-07 09:59 41.34075 22.29076 36080 ft 428 kts 316°
2026-05-07 10:00 41.38695 22.24113 36164 ft 426 kts 316°
2026-05-07 10:00 41.43301 22.19159 36166 ft 425 kts 316°
2026-05-07 10:01 41.47868 22.14229 36165 ft 425 kts 316°
2026-05-07 10:01 41.52467 22.09259 36164 ft 425 kts 316°
2026-05-07 10:02 41.57064 22.04290 36166 ft 425 kts 316°
2026-05-07 10:02 41.61665 21.99308 36164 ft 426 kts 316°
2026-05-07 10:03 41.66259 21.94314 36158 ft 426 kts 316°
2026-05-07 10:03 41.70858 21.89311 36163 ft 426 kts 316°
2026-05-07 10:04 41.75453 21.84307 36163 ft 426 kts 316°
2026-05-07 10:04 41.80044 21.79285 36164 ft 426 kts 316°
2026-05-07 10:05 41.84605 21.74290 36170 ft 426 kts 316°
2026-05-07 10:05 41.89194 21.69257 36164 ft 426 kts 316°
2026-05-07 10:06 41.93789 21.64216 36161 ft 427 kts 316°
2026-05-07 10:06 41.98384 21.59151 36161 ft 428 kts 316°
2026-05-07 10:07 42.02988 21.54074 36160 ft 428 kts 316°
2026-05-07 10:07 42.07595 21.48981 36158 ft 429 kts 316°
2026-05-07 10:08 42.12204 21.43874 36154 ft 429 kts 316°
2026-05-07 10:08 42.16669 21.38584 36145 ft 424 kts 307°
2026-05-07 10:09 42.20499 21.32550 36143 ft 424 kts 306°
2026-05-07 10:09 42.24290 21.26510 36147 ft 425 kts 306°
2026-05-07 10:10 42.28121 21.20420 36147 ft 426 kts 306°
2026-05-07 10:10 42.31958 21.14324 36145 ft 426 kts 306°
2026-05-07 10:11 42.35788 21.08207 36144 ft 426 kts 306°
2026-05-07 10:11 42.39617 21.02070 36146 ft 427 kts 306°
2026-05-07 10:12 42.43454 20.95925 36152 ft 428 kts 306°
2026-05-07 10:12 42.47289 20.89768 36154 ft 428 kts 306°
2026-05-07 10:13 42.51091 20.83642 36161 ft 428 kts 306°
2026-05-07 10:13 42.54922 20.77475 36158 ft 428 kts 306°
2026-05-07 10:14 42.58751 20.71298 36153 ft 427 kts 306°
2026-05-07 10:14 42.62568 20.65113 36148 ft 428 kts 306°
2026-05-07 10:15 42.66385 20.58914 36142 ft 428 kts 306°
2026-05-07 10:15 42.70201 20.52705 36138 ft 428 kts 306°
2026-05-07 10:16 42.73993 20.46529 36133 ft 428 kts 306°
2026-05-07 10:16 42.77807 20.40303 36138 ft 428 kts 305°
2026-05-07 10:17 42.81613 20.34063 36130 ft 428 kts 305°
2026-05-07 10:17 42.85418 20.27810 36134 ft 429 kts 305°
2026-05-07 10:18 42.89222 20.21564 36128 ft 427 kts 305°
2026-05-07 10:18 42.93013 20.15329 36123 ft 427 kts 305°
2026-05-07 10:19 42.96772 20.09136 36128 ft 427 kts 305°
2026-05-07 10:19 43.00550 20.02888 36122 ft 426 kts 305°
2026-05-07 10:20 43.04315 19.96635 36120 ft 426 kts 305°
2026-05-07 10:20 43.08077 19.90386 36127 ft 426 kts 305°
2026-05-07 10:21 43.11835 19.84141 36115 ft 425 kts 305°
2026-05-07 10:21 43.15590 19.77891 36113 ft 425 kts 305°
2026-05-07 10:22 43.19336 19.71626 36106 ft 425 kts 305°
2026-05-07 10:22 43.23078 19.65362 36101 ft 424 kts 305°
2026-05-07 10:23 43.26787 19.59134 36101 ft 425 kts 305°
2026-05-07 10:23 43.30521 19.52847 36100 ft 425 kts 305°
2026-05-07 10:24 43.34254 19.46555 36102 ft 425 kts 305°
2026-05-07 10:24 43.37984 19.40252 36104 ft 425 kts 305°
2026-05-07 10:25 43.41715 19.33942 36103 ft 425 kts 304°
2026-05-07 10:25 43.45414 19.27658 36095 ft 425 kts 304°
2026-05-07 10:26 43.49139 19.21324 36098 ft 425 kts 305°
2026-05-07 10:26 43.52855 19.14988 36100 ft 425 kts 304°
2026-05-07 10:27 43.56638 19.08701 36088 ft 427 kts 306°
2026-05-07 10:27 43.60526 19.02510 36098 ft 427 kts 307°
2026-05-07 10:28 43.63753 18.97362 36086 ft 427 kts 307°
2026-05-07 10:28 43.67604 18.91132 36096 ft 426 kts 306°
2026-05-07 10:29 43.72048 18.83864 36104 ft 426 kts 306°
2026-05-07 10:29 43.75251 18.78628 36109 ft 425 kts 306°
2026-05-07 10:30 43.80967 18.69303 36108 ft 425 kts 306°
2026-05-07 10:30 43.84785 18.63059 36102 ft 425 kts 306°
2026-05-07 10:31 43.88594 18.56798 36107 ft 424 kts 306°
2026-05-07 10:31 43.92392 18.50542 36099 ft 424 kts 306°
2026-05-07 10:32 43.96187 18.44281 36112 ft 424 kts 306°
2026-05-07 10:32 43.99973 18.38020 36101 ft 423 kts 306°
2026-05-07 10:33 44.03753 18.31757 36099 ft 423 kts 306°
2026-05-07 10:33 44.07526 18.25488 36098 ft 423 kts 306°
2026-05-07 10:34 44.11298 18.19209 36097 ft 423 kts 306°
2026-05-07 10:34 44.15045 18.12974 36091 ft 423 kts 306°
2026-05-07 10:35 44.18810 18.06683 36090 ft 423 kts 306°
2026-05-07 10:35 44.22569 18.00383 36083 ft 423 kts 306°
2026-05-07 10:36 44.26324 17.94072 36085 ft 423 kts 306°
2026-05-07 10:36 44.30082 17.87761 36079 ft 422 kts 306°
2026-05-07 10:37 44.33831 17.81447 36079 ft 422 kts 305°
2026-05-07 10:37 44.37574 17.75121 36081 ft 422 kts 306°
2026-05-07 10:38 44.41404 17.68881 36076 ft 423 kts 307°
2026-05-07 10:38 44.45302 17.62706 36077 ft 423 kts 307°
2026-05-07 10:39 44.49163 17.56564 36077 ft 423 kts 307°
2026-05-07 10:39 44.53020 17.50353 36073 ft 422 kts 306°
2026-05-07 10:40 44.56856 17.44128 36073 ft 422 kts 306°
2026-05-07 10:40 44.60685 17.37903 36065 ft 421 kts 306°
2026-05-07 10:41 44.64514 17.31679 36061 ft 421 kts 306°
2026-05-07 10:41 44.68318 17.25496 36065 ft 421 kts 306°
2026-05-07 10:42 44.72141 17.19256 36070 ft 421 kts 306°
2026-05-07 10:42 44.75959 17.13012 36050 ft 421 kts 306°
2026-05-07 10:43 44.79774 17.06763 36061 ft 421 kts 306°
2026-05-07 10:43 44.83577 17.00503 36058 ft 421 kts 306°
2026-05-07 10:44 44.87395 16.94250 36060 ft 421 kts 306°
2026-05-07 10:44 44.91192 16.88038 36056 ft 421 kts 306°
2026-05-07 10:45 44.94998 16.81770 36062 ft 421 kts 305°
2026-05-07 10:45 44.98750 16.75436 36061 ft 420 kts 304°
2026-05-07 10:46 45.02403 16.69004 36063 ft 419 kts 303°
2026-05-07 10:46 45.06045 16.62560 36066 ft 419 kts 303°
2026-05-07 10:47 45.09701 16.56133 36069 ft 419 kts 303°
2026-05-07 10:47 45.13366 16.49711 36066 ft 419 kts 303°
2026-05-07 10:48 45.17002 16.43326 36069 ft 419 kts 303°
2026-05-07 10:48 45.20661 16.36894 36065 ft 419 kts 303°
2026-05-07 10:49 45.24319 16.30462 36066 ft 419 kts 303°
2026-05-07 10:49 45.27965 16.24021 36062 ft 418 kts 303°
2026-05-07 10:50 45.31594 16.17575 36056 ft 418 kts 303°
2026-05-07 10:50 45.35223 16.11127 36046 ft 418 kts 303°
2026-05-07 10:51 45.38833 16.04720 36047 ft 418 kts 303°
2026-05-07 10:51 45.42458 15.98264 36044 ft 417 kts 303°
2026-05-07 10:52 45.46074 15.91797 36046 ft 417 kts 303°
2026-05-07 10:52 45.49685 15.85322 36046 ft 417 kts 303°
2026-05-07 10:53 45.53294 15.78850 36047 ft 417 kts 303°
2026-05-07 10:53 45.56891 15.72381 36043 ft 416 kts 303°
2026-05-07 10:54 45.60477 15.65908 36041 ft 415 kts 303°
2026-05-07 10:54 45.64055 15.59431 36043 ft 415 kts 302°
2026-05-07 10:55 45.67603 15.52990 36040 ft 415 kts 302°
2026-05-07 10:55 45.71176 15.46511 36042 ft 415 kts 303°
2026-05-07 10:56 45.74742 15.40030 36039 ft 414 kts 302°
2026-05-07 10:56 45.78252 15.33653 37115 ft 365 kts 303°
2026-05-07 10:57 45.79683 15.31203 39969 ft 284 kts 305°
2026-05-07 10:57 45.80907 15.29206 40922 ft 264 kts 305°
2026-05-07 10:57 45.82220 15.27049 39019 ft 322 kts 305°
2026-05-07 10:57 45.83816 15.24230 36951 ft 389 kts 302°
2026-05-07 10:58 45.87097 15.17974 36680 ft 404 kts 302°
2026-05-07 10:58 45.88815 15.14726 36497 ft 413 kts 302°
2026-05-07 10:58 45.90570 15.11474 36305 ft 422 kts 303°
2026-05-07 10:59 45.92409 15.08126 36109 ft 431 kts 303°
2026-05-07 10:59 45.94324 15.04679 35967 ft 439 kts 303°
2026-05-07 10:59 45.98155 14.97836 36003 ft 446 kts 303°
2026-05-07 11:00 46.02059 14.90811 35999 ft 453 kts 303°
2026-05-07 11:00 46.04018 14.87256 36225 ft 451 kts 303°
2026-05-07 11:00 46.05956 14.83747 36680 ft 444 kts 303°
2026-05-07 11:01 46.07868 14.80290 37128 ft 438 kts 303°
2026-05-07 11:01 46.09751 14.76895 37575 ft 431 kts 304°
2026-05-07 11:01 46.11610 14.73552 38022 ft 424 kts 304°
2026-05-07 11:01 46.13439 14.70271 38468 ft 417 kts 304°
2026-05-07 11:02 46.15242 14.67046 38870 ft 409 kts 304°
2026-05-07 11:02 46.17013 14.63886 39234 ft 401 kts 304°
2026-05-07 11:02 46.18753 14.60789 39601 ft 393 kts 304°
2026-05-07 11:02 46.20464 14.57755 39983 ft 385 kts 304°
2026-05-07 11:03 46.22139 14.54793 40342 ft 377 kts 304°
2026-05-07 11:03 46.23779 14.51904 40695 ft 367 kts 304°
2026-05-07 11:03 46.25384 14.49090 41019 ft 359 kts 304°
2026-05-07 11:03 46.26967 14.46320 41091 ft 358 kts 304°
2026-05-07 11:04 46.28543 14.43555 40855 ft 365 kts 304°
2026-05-07 11:04 46.30171 14.40687 40646 ft 372 kts 304°
2026-05-07 11:04 46.31806 14.37801 40758 ft 369 kts 304°
2026-05-07 11:04 46.33419 14.34963 41027 ft 361 kts 304°
2026-05-07 11:05 46.36616 14.29343 40933 ft 366 kts 304°
2026-05-07 11:05 46.38245 14.26468 40757 ft 372 kts 304°
2026-05-07 11:05 46.39879 14.23581 40823 ft 368 kts 304°
2026-05-07 11:06 46.41494 14.20733 41024 ft 363 kts 304°
2026-05-07 11:06 46.43096 14.17915 41079 ft 362 kts 304°
2026-05-07 11:06 46.44702 14.15086 40945 ft 365 kts 304°
2026-05-07 11:06 46.46324 14.12223 40827 ft 369 kts 304°
2026-05-07 11:07 46.49574 14.06482 41028 ft 363 kts 304°
2026-05-07 11:07 46.52774 14.00841 40940 ft 366 kts 304°
2026-05-07 11:08 46.54400 13.97965 40770 ft 371 kts 304°
2026-05-07 11:08 46.56011 13.95112 40807 ft 369 kts 304°
2026-05-07 11:08 46.57627 13.92256 41018 ft 363 kts 304°
2026-05-07 11:08 46.59224 13.89437 41109 ft 361 kts 304°
2026-05-07 11:09 46.60827 13.86606 40982 ft 365 kts 304°
2026-05-07 11:09 46.62452 13.83727 40818 ft 370 kts 304°
2026-05-07 11:09 46.65704 13.77958 41038 ft 365 kts 304°
2026-05-07 11:10 46.68918 13.72267 41030 ft 367 kts 304°
2026-05-07 11:10 46.70546 13.69375 40910 ft 371 kts 304°
2026-05-07 11:10 46.72179 13.66470 40946 ft 370 kts 304°
2026-05-07 11:11 46.73805 13.63581 41077 ft 367 kts 304°
2026-05-07 11:11 46.75420 13.60715 41142 ft 366 kts 304°
2026-05-07 11:11 46.78673 13.54929 40992 ft 372 kts 304°
2026-05-07 11:12 46.81921 13.49143 41098 ft 368 kts 304°
2026-05-07 11:12 46.85174 13.43351 41068 ft 371 kts 304°
2026-05-07 11:13 46.88460 13.37484 41065 ft 373 kts 304°
2026-05-07 11:13 46.91729 13.31652 41186 ft 371 kts 304°
2026-05-07 11:14 46.95016 13.25776 41058 ft 375 kts 304°
2026-05-07 11:14 46.98307 13.19886 41210 ft 372 kts 304°
2026-05-07 11:15 47.01565 13.14059 41186 ft 374 kts 304°
2026-05-07 11:15 47.04873 13.08128 41151 ft 376 kts 304°
2026-05-07 11:16 47.06522 13.05171 41257 ft 374 kts 304°
2026-05-07 11:16 47.08168 13.02222 41325 ft 373 kts 304°
2026-05-07 11:16 47.11471 12.96295 41213 ft 377 kts 304°
2026-05-07 11:17 47.14798 12.90308 41245 ft 377 kts 304°
2026-05-07 11:17 47.16449 12.87342 41384 ft 373 kts 304°
2026-05-07 11:17 47.18091 12.84394 41391 ft 373 kts 304°
2026-05-07 11:18 47.19742 12.81423 41259 ft 377 kts 304°
2026-05-07 11:18 47.21407 12.78421 41173 ft 380 kts 304°
2026-05-07 11:18 47.24729 12.72431 41283 ft 377 kts 303°
2026-05-07 11:19 47.26188 12.69142 40547 ft 393 kts 292°
2026-05-07 11:19 47.27405 12.65435 39848 ft 412 kts 289°
2026-05-07 11:19 47.28565 12.61503 39472 ft 423 kts 288°
2026-05-07 11:19 47.29682 12.57447 39246 ft 432 kts 287°
2026-05-07 11:20 47.30788 12.53339 38961 ft 442 kts 287°
2026-05-07 11:20 47.31942 12.49080 38740 ft 450 kts 287°
2026-05-07 11:20 47.33158 12.44834 38865 ft 452 kts 293°
2026-05-07 11:20 47.34776 12.40828 38931 ft 456 kts 297°
2026-05-07 11:21 47.36498 12.36780 38388 ft 471 kts 297°
2026-05-07 11:21 47.38217 12.32738 38570 ft 468 kts 297°
2026-05-07 11:21 47.39957 12.28654 38449 ft 473 kts 297°
2026-05-07 11:21 47.41726 12.24507 38214 ft 480 kts 297°
2026-05-07 11:22 47.43518 12.20361 37938 ft 475 kts 297°
2026-05-07 11:22 47.45276 12.16316 38056 ft 466 kts 298°
2026-05-07 11:22 47.48790 12.08170 37901 ft 470 kts 297°
2026-05-07 11:23 47.50521 12.04135 37970 ft 457 kts 297°
2026-05-07 11:23 47.52193 12.00219 38008 ft 443 kts 297°
2026-05-07 11:23 47.53770 11.96400 38009 ft 430 kts 296°
2026-05-07 11:23 47.55306 11.92601 38009 ft 431 kts 296°
2026-05-07 11:24 47.58399 11.84984 38010 ft 433 kts 296°
2026-05-07 11:24 47.61560 11.77378 37992 ft 434 kts 297°
2026-05-07 11:25 47.64759 11.69775 38015 ft 435 kts 297°
2026-05-07 11:25 47.67946 11.62148 38012 ft 435 kts 297°
2026-05-07 11:26 47.71115 11.54489 38016 ft 435 kts 297°
2026-05-07 11:26 47.74282 11.46835 38025 ft 435 kts 297°
2026-05-07 11:27 47.77420 11.39222 38029 ft 435 kts 297°
2026-05-07 11:27 47.80574 11.31560 38040 ft 434 kts 297°
2026-05-07 11:28 47.83710 11.23893 38038 ft 434 kts 297°
2026-05-07 11:28 47.86846 11.16224 38048 ft 433 kts 297°
2026-05-07 11:29 47.89974 11.08551 38051 ft 433 kts 297°
2026-05-07 11:29 47.93097 11.00869 38050 ft 433 kts 297°
2026-05-07 11:30 47.96224 10.93179 38051 ft 434 kts 297°
2026-05-07 11:30 47.99335 10.85466 38051 ft 434 kts 297°
2026-05-07 11:31 48.02444 10.77749 38050 ft 434 kts 297°
2026-05-07 11:31 48.05029 10.71328 38050 ft 434 kts 297°
2026-05-07 11:32 48.07810 10.64421 38049 ft 434 kts 297°
2026-05-07 11:33 48.10901 10.56675 38046 ft 434 kts 297°
2026-05-07 11:33 48.13983 10.48921 38040 ft 434 kts 297°
2026-05-07 11:34 48.17073 10.41155 38042 ft 434 kts 297°
2026-05-07 11:34 48.20160 10.33383 38043 ft 434 kts 297°
2026-05-07 11:35 48.23239 10.25603 38043 ft 434 kts 296°
2026-05-07 11:35 48.26337 10.17742 38048 ft 434 kts 296°
2026-05-07 11:36 48.29377 10.10007 38053 ft 433 kts 296°
2026-05-07 11:36 48.32428 10.02208 38038 ft 433 kts 296°
2026-05-07 11:37 48.35481 9.94392 38041 ft 433 kts 296°
2026-05-07 11:37 48.38530 9.86569 38041 ft 434 kts 296°
2026-05-07 11:38 48.41575 9.78728 38040 ft 434 kts 296°
2026-05-07 11:38 48.44613 9.70870 38039 ft 434 kts 296°
2026-05-07 11:39 48.47648 9.63008 38038 ft 434 kts 296°
2026-05-07 11:39 48.50682 9.55130 38043 ft 435 kts 296°
2026-05-07 11:40 48.53713 9.47241 38045 ft 435 kts 297°
2026-05-07 11:40 48.56722 9.39394 38052 ft 435 kts 296°
2026-05-07 11:41 48.59793 9.31514 38052 ft 437 kts 302°
2026-05-07 11:41 48.64086 9.24967 38051 ft 445 kts 323°
2026-05-07 11:42 48.69648 9.20765 38052 ft 449 kts 333°
2026-05-07 11:42 48.75384 9.16998 38061 ft 449 kts 334°
2026-05-07 11:43 48.81103 9.13202 38058 ft 448 kts 334°
2026-05-07 11:43 48.86808 9.09394 38052 ft 448 kts 334°
2026-05-07 11:44 48.92502 9.05546 38057 ft 447 kts 333°
2026-05-07 11:44 48.98160 9.01606 38055 ft 447 kts 333°
2026-05-07 11:45 49.03775 8.97670 38058 ft 447 kts 333°
2026-05-07 11:45 49.09429 8.93719 38046 ft 447 kts 333°
2026-05-07 11:46 49.15082 8.89771 38056 ft 447 kts 333°
2026-05-07 11:46 49.20781 8.85978 38050 ft 448 kts 340°
2026-05-07 11:47 49.26727 8.83083 38054 ft 448 kts 340°
2026-05-07 11:47 49.32670 8.80188 38058 ft 448 kts 340°
2026-05-07 11:48 49.38614 8.77291 38066 ft 448 kts 340°
2026-05-07 11:48 49.44559 8.74379 38069 ft 448 kts 340°
2026-05-07 11:49 49.50501 8.71461 38069 ft 448 kts 340°
2026-05-07 11:49 49.56441 8.68528 38069 ft 448 kts 340°
2026-05-07 11:50 49.62378 8.65581 38066 ft 448 kts 340°
2026-05-07 11:50 49.68314 8.62626 38063 ft 448 kts 338°
2026-05-07 11:51 49.73707 8.58045 38055 ft 441 kts 319°
2026-05-07 11:51 49.78207 8.51636 38041 ft 440 kts 315°
2026-05-07 11:52 49.82622 8.45066 38042 ft 439 kts 309°
2026-05-07 11:52 49.85847 8.37157 38052 ft 434 kts 290°
2026-05-07 11:53 49.87765 8.28308 38048 ft 433 kts 287°
2026-05-07 11:53 49.89638 8.19416 38052 ft 434 kts 287°
2026-05-07 11:54 49.91503 8.10519 38055 ft 434 kts 287°
2026-05-07 11:54 49.93358 8.01602 38059 ft 434 kts 287°
2026-05-07 11:55 49.94816 7.92542 38061 ft 432 kts 276°
2026-05-07 11:55 49.95542 7.83339 38060 ft 432 kts 276°
2026-05-07 11:56 49.96280 7.74068 38060 ft 433 kts 276°
2026-05-07 11:56 49.97017 7.64799 38064 ft 433 kts 276°
2026-05-07 11:57 49.97738 7.55520 38067 ft 433 kts 276°
2026-05-07 11:57 49.98452 7.46233 38069 ft 433 kts 276°
2026-05-07 11:58 49.99158 7.36951 38073 ft 433 kts 276°
2026-05-07 11:58 49.99861 7.27661 38075 ft 433 kts 276°
2026-05-07 11:59 50.00562 7.18370 38072 ft 433 kts 276°
2026-05-07 11:59 50.01242 7.09080 38075 ft 433 kts 276°
2026-05-07 12:00 50.01912 6.99848 38073 ft 433 kts 276°
2026-05-07 12:00 50.02969 6.90661 38052 ft 433 kts 288°
2026-05-07 12:01 50.05629 6.82248 38050 ft 434 kts 298°
2026-05-07 12:01 50.08566 6.74029 38048 ft 435 kts 297°
2026-05-07 12:02 50.11485 6.65778 38044 ft 435 kts 297°
2026-05-07 12:02 50.14397 6.57516 38050 ft 435 kts 297°
2026-05-07 12:03 50.17309 6.49245 38045 ft 435 kts 297°
2026-05-07 12:03 50.20254 6.41070 38051 ft 435 kts 300°
2026-05-07 12:04 50.23480 6.33062 38048 ft 436 kts 302°
2026-05-07 12:04 50.26765 6.25101 38054 ft 436 kts 301°
2026-05-07 12:05 50.29997 6.17088 38064 ft 436 kts 301°
2026-05-07 12:05 50.33182 6.09021 38065 ft 436 kts 300°
2026-05-07 12:06 50.36358 6.00942 38070 ft 436 kts 300°
2026-05-07 12:06 50.39542 5.92858 38076 ft 436 kts 300°
2026-05-07 12:07 50.42725 5.84769 38085 ft 436 kts 300°
2026-05-07 12:07 50.45905 5.76671 38089 ft 436 kts 300°
2026-05-07 12:08 50.49055 5.68607 38099 ft 436 kts 300°
2026-05-07 12:08 50.52208 5.60467 38102 ft 436 kts 300°
2026-05-07 12:09 50.55243 5.52218 38104 ft 436 kts 298°
2026-05-07 12:09 50.58207 5.43901 38103 ft 436 kts 298°
2026-05-07 12:10 50.61188 5.35590 38103 ft 436 kts 298°
2026-05-07 12:10 50.64185 5.27280 38104 ft 436 kts 298°
2026-05-07 12:11 50.67179 5.18964 38099 ft 436 kts 298°
2026-05-07 12:11 50.70165 5.10637 38100 ft 436 kts 298°
2026-05-07 12:12 50.73142 5.02291 38098 ft 436 kts 298°
2026-05-07 12:12 50.76092 4.93998 38099 ft 436 kts 298°
2026-05-07 12:13 50.79058 4.85628 38098 ft 436 kts 298°
2026-05-07 12:13 50.82020 4.77248 38101 ft 437 kts 298°
2026-05-07 12:14 50.84974 4.68857 38103 ft 437 kts 297°
2026-05-07 12:14 50.87923 4.60453 38105 ft 437 kts 297°
2026-05-07 12:15 50.90875 4.52047 38104 ft 437 kts 298°
2026-05-07 12:15 50.93978 4.43840 38103 ft 437 kts 300°
2026-05-07 12:16 50.97198 4.35655 38104 ft 437 kts 300°
2026-05-07 12:16 51.00392 4.27428 38105 ft 438 kts 300°
2026-05-07 12:17 51.03540 4.19163 38101 ft 438 kts 299°
2026-05-07 12:17 51.06672 4.10867 38098 ft 438 kts 299°
2026-05-07 12:18 51.09809 4.02567 38102 ft 438 kts 300°
2026-05-07 12:18 51.12944 3.94257 38096 ft 438 kts 299°
2026-05-07 12:19 51.16075 3.85937 38098 ft 438 kts 299°
2026-05-07 12:19 51.19202 3.77603 38095 ft 438 kts 299°
2026-05-07 12:20 51.22294 3.69302 38097 ft 438 kts 297°
2026-05-07 12:20 51.24371 3.60262 38095 ft 434 kts 281°
2026-05-07 12:21 51.25613 3.50828 38096 ft 435 kts 281°
2026-05-07 12:21 51.26859 3.41378 38097 ft 435 kts 281°
2026-05-07 12:22 51.28092 3.31921 38098 ft 435 kts 280°
2026-05-07 12:22 51.29305 3.22447 38103 ft 435 kts 280°
2026-05-07 12:23 51.30511 3.12967 38103 ft 436 kts 280°
2026-05-07 12:23 51.31710 3.03479 38104 ft 436 kts 280°
2026-05-07 12:24 51.32904 2.93980 38100 ft 436 kts 280°
2026-05-07 12:24 51.34092 2.84477 38103 ft 436 kts 280°
2026-05-07 12:25 51.35271 2.74965 38107 ft 436 kts 280°
2026-05-07 12:25 51.36444 2.65445 38110 ft 436 kts 280°
2026-05-07 12:26 51.37610 2.55987 38105 ft 436 kts 280°
2026-05-07 12:26 51.38780 2.46455 38112 ft 436 kts 280°
2026-05-07 12:27 51.39933 2.36912 38114 ft 436 kts 280°
2026-05-07 12:27 51.41071 2.27366 38104 ft 437 kts 279°
2026-05-07 12:28 51.42221 2.17818 38118 ft 437 kts 280°
2026-05-07 12:28 51.43394 2.08267 38103 ft 437 kts 280°
2026-05-07 12:29 51.44553 1.98712 38113 ft 437 kts 280°
2026-05-07 12:29 51.45685 1.89211 38114 ft 437 kts 279°
2026-05-07 12:30 51.46800 1.79634 38122 ft 437 kts 279°
2026-05-07 12:30 51.47898 1.70049 38117 ft 437 kts 279°
2026-05-07 12:31 51.48803 1.62071 38115 ft 437 kts 279°
2026-05-07 12:31 51.49896 1.52477 38119 ft 437 kts 279°
2026-05-07 12:32 51.50987 1.42877 38119 ft 437 kts 279°
2026-05-07 12:32 51.52067 1.33267 38118 ft 437 kts 279°
2026-05-07 12:33 51.53661 1.18833 38113 ft 438 kts 279°
2026-05-07 12:33 51.54176 1.09137 38112 ft 436 kts 268°
2026-05-07 12:34 51.54043 0.99411 38106 ft 436 kts 268°
2026-05-07 12:34 51.53918 0.89669 38100 ft 436 kts 268°
2026-05-07 12:35 51.53786 0.79931 38102 ft 436 kts 268°
2026-05-07 12:35 51.53717 0.75047 37984 ft 442 kts 268°
2026-05-07 12:35 51.53642 0.70082 37713 ft 446 kts 268°
2026-05-07 12:36 51.53566 0.65110 37444 ft 445 kts 268°
2026-05-07 12:36 51.53489 0.60148 37173 ft 444 kts 268°
2026-05-07 12:36 51.53410 0.55207 36907 ft 441 kts 268°
2026-05-07 12:36 51.53328 0.50296 36646 ft 438 kts 267°
2026-05-07 12:37 51.53242 0.45424 36210 ft 435 kts 267°
2026-05-07 12:37 51.53154 0.40579 35695 ft 432 kts 267°
2026-05-07 12:37 51.53083 0.35772 35176 ft 430 kts 268°
2026-05-07 12:37 51.53070 0.30988 34661 ft 427 kts 269°
2026-05-07 12:38 51.53101 0.26224 34142 ft 425 kts 270°
2026-05-07 12:38 51.53147 0.21494 33570 ft 423 kts 270°
2026-05-07 12:38 51.53189 0.16800 33074 ft 418 kts 270°
2026-05-07 12:38 51.53218 0.12150 32573 ft 414 kts 269°
2026-05-07 12:39 51.53232 0.07544 32074 ft 411 kts 269°
2026-05-07 12:39 51.53236 0.02974 31588 ft 407 kts 269°
2026-05-07 12:39 51.53234 -0.01552 31104 ft 404 kts 269°
2026-05-07 12:39 51.53228 -0.06047 30634 ft 401 kts 269°
2026-05-07 12:40 51.53223 -0.10509 30159 ft 398 kts 269°
2026-05-07 12:40 51.53222 -0.14927 29658 ft 394 kts 269°
2026-05-07 12:40 51.53221 -0.19301 29223 ft 389 kts 269°
2026-05-07 12:40 51.53217 -0.23612 28784 ft 384 kts 269°
2026-05-07 12:41 51.53211 -0.27867 28368 ft 379 kts 269°
2026-05-07 12:41 51.53201 -0.32068 27953 ft 374 kts 269°
2026-05-07 12:41 51.53190 -0.36223 27532 ft 370 kts 268°
2026-05-07 12:41 51.53176 -0.40323 27115 ft 365 kts 268°
2026-05-07 12:42 51.53164 -0.44386 26692 ft 362 kts 268°
2026-05-07 12:42 51.53154 -0.48351 26284 ft 359 kts 268°
2026-05-07 12:42 51.53142 -0.52391 25866 ft 356 kts 268°
2026-05-07 12:42 51.53126 -0.56297 25437 ft 353 kts 268°
2026-05-07 12:43 51.53107 -0.60233 25006 ft 351 kts 268°
2026-05-07 12:43 51.53088 -0.64142 24564 ft 350 kts 268°
2026-05-07 12:43 51.53068 -0.68040 24121 ft 348 kts 268°
2026-05-07 12:43 51.53047 -0.71926 23676 ft 347 kts 268°
2026-05-07 12:44 51.53024 -0.75794 23173 ft 346 kts 268°
2026-05-07 12:44 51.53000 -0.79640 22725 ft 343 kts 268°
2026-05-07 12:44 51.52975 -0.83452 22296 ft 340 kts 268°
2026-05-07 12:44 51.52950 -0.87242 21871 ft 338 kts 268°
2026-05-07 12:45 51.52925 -0.91009 21453 ft 336 kts 268°
2026-05-07 12:45 51.52898 -0.94750 21038 ft 334 kts 268°
2026-05-07 12:45 51.52868 -0.98465 20627 ft 332 kts 268°
2026-05-07 12:45 51.52838 -1.02165 20219 ft 330 kts 268°
2026-05-07 12:46 51.52808 -1.05849 19813 ft 329 kts 268°
2026-05-07 12:46 51.52776 -1.09521 19408 ft 328 kts 268°
2026-05-07 12:46 51.52743 -1.13181 19003 ft 328 kts 268°
2026-05-07 12:46 51.52799 -1.16835 18606 ft 328 kts 275°
2026-05-07 12:47 51.53195 -1.20395 18191 ft 329 kts 279°
2026-05-07 12:47 51.53627 -1.23994 17772 ft 327 kts 279°
2026-05-07 12:47 51.54052 -1.27573 17369 ft 326 kts 279°
2026-05-07 12:47 51.54473 -1.31140 16983 ft 324 kts 279°
2026-05-07 12:48 51.54891 -1.34697 16581 ft 324 kts 278°
2026-05-07 12:48 51.55018 -1.38345 15769 ft 333 kts 265°
2026-05-07 12:48 51.54906 -1.42069 15314 ft 334 kts 265°
2026-05-07 12:48 51.54793 -1.45793 14926 ft 333 kts 265°
2026-05-07 12:49 51.54678 -1.49497 14534 ft 332 kts 265°
2026-05-07 12:49 51.54561 -1.53193 14146 ft 330 kts 265°
2026-05-07 12:49 51.54443 -1.56870 13751 ft 330 kts 265°
2026-05-07 12:49 51.54327 -1.60530 13372 ft 327 kts 265°
2026-05-07 12:50 51.54212 -1.64171 12992 ft 325 kts 265°
2026-05-07 12:50 51.54100 -1.67783 12565 ft 324 kts 265°
2026-05-07 12:50 51.53985 -1.71378 12199 ft 321 kts 265°
2026-05-07 12:50 51.53869 -1.74952 11833 ft 319 kts 265°
2026-05-07 12:51 51.53751 -1.78506 11415 ft 318 kts 265°
2026-05-07 12:51 51.53631 -1.82041 11015 ft 317 kts 265°
2026-05-07 12:51 51.53509 -1.85550 10629 ft 315 kts 265°
2026-05-07 12:51 51.53387 -1.89037 10431 ft 307 kts 265°
2026-05-07 12:52 51.53272 -1.92385 10144 ft 295 kts 265°
2026-05-07 12:52 51.53160 -1.95641 9568 ft 290 kts 265°
2026-05-07 12:52 51.53047 -1.98875 9177 ft 289 kts 265°
2026-05-07 12:52 51.52933 -2.02081 8826 ft 286 kts 265°
2026-05-07 12:53 51.52820 -2.05255 8491 ft 284 kts 265°
2026-05-07 12:53 51.52502 -2.08352 8139 ft 280 kts 251°
2026-05-07 12:53 51.51728 -2.11186 7772 ft 276 kts 240°
2026-05-07 12:53 51.50834 -2.13887 7241 ft 272 kts 241°
2026-05-07 12:54 51.49956 -2.16560 6625 ft 269 kts 241°
2026-05-07 12:54 51.49093 -2.19197 6102 ft 266 kts 241°
2026-05-07 12:54 51.48235 -2.21812 5655 ft 262 kts 241°
2026-05-07 12:54 51.47404 -2.24343 5262 ft 251 kts 241°
2026-05-07 12:55 51.46605 -2.26778 4871 ft 242 kts 240°
2026-05-07 12:55 51.45829 -2.29136 4473 ft 239 kts 240°
2026-05-07 12:55 51.45048 -2.31499 4108 ft 241 kts 240°
2026-05-07 12:55 51.44247 -2.33920 3768 ft 250 kts 240°
2026-05-07 12:56 51.43466 -2.36287 3582 ft 234 kts 240°
2026-05-07 12:56 51.42725 -2.38524 3349 ft 224 kts 239°
2026-05-07 12:56 51.42005 -2.40693 3207 ft 217 kts 240°
2026-05-07 12:56 51.41315 -2.42779 3064 ft 206 kts 240°
2026-05-07 12:57 51.40669 -2.44741 2933 ft 192 kts 239°
2026-05-07 12:57 51.40066 -2.46570 2769 ft 181 kts 239°
2026-05-07 12:57 51.39477 -2.48347 2529 ft 181 kts 240°
2026-05-07 12:57 51.39102 -2.50211 2483 ft 170 kts 259°
2026-05-07 12:58 51.39023 -2.51993 2508 ft 154 kts 262°
2026-05-07 12:58 51.38960 -2.53657 2481 ft 148 kts 263°
2026-05-07 12:58 51.38899 -2.55290 2453 ft 146 kts 261°
2026-05-07 12:58 51.38838 -2.56905 2329 ft 145 kts 261°
2026-05-07 12:59 51.38777 -2.58514 2158 ft 144 kts 262°
2026-05-07 12:59 51.38717 -2.60111 1965 ft 143 kts 262°
2026-05-07 12:59 51.38657 -2.61700 1790 ft 144 kts 262°
2026-05-07 12:59 51.38596 -2.63306 1572 ft 145 kts 263°
2026-05-07 13:00 51.38535 -2.64913 1361 ft 144 kts 263°
2026-05-07 13:00 51.38475 -2.66499 1176 ft 143 kts 262°
2026-05-07 13:00 51.38414 -2.68088 981 ft 144 kts 261°
2026-05-07 13:00 51.38353 -2.69686 790 ft 145 kts 263°
2026-05-07 13:01 51.38291 -2.71287 614 ft 140 kts 266°
2026-05-07 13:01 51.38243 -2.72538 625 ft 82 kts 266°
2026-05-07 13:01 51.38220 -2.73126 628 ft 23 kts 266°
2026-05-07 13:01 51.38230 -2.73302 635 ft 13 kts 307°
2026-05-07 13:02 51.38328 -2.73336 614 ft 18 kts 15°
2026-05-07 13:02 51.38383 -2.73179 621 ft 17 kts 82°
2026-05-07 13:02 51.38393 -2.72982 615 ft 19 kts 86°
2026-05-07 13:02 51.38401 -2.72765 615 ft 20 kts 86°
2026-05-07 13:03 51.38410 -2.72537 626 ft 20 kts 86°
2026-05-07 13:03 51.38419 -2.72323 613 ft 20 kts 86°
2026-05-07 13:03 51.38428 -2.72080 618 ft 23 kts 86°
2026-05-07 13:03 51.38431 -2.71803 606 ft 26 kts 88°
2026-05-07 13:04 51.38441 -2.71525 616 ft 22 kts 86°
2026-05-07 13:04 51.38449 -2.71302 618 ft 18 kts 86°
2026-05-07 13:04 51.38457 -2.71098 616 ft 19 kts 86°
2026-05-07 13:04 51.38464 -2.70891 613 ft 17 kts 88°
2026-05-07 13:05 51.38500 -2.70831 618 ft 5 kts
2026-05-07 13:05 51.38526 -2.70847 615 ft 3 kts 290°
2026-05-07 13:05 51.38526 -2.70871 615 ft 4 kts 267°
2026-05-07 13:05 51.38525 -2.70901 622 ft 2 kts 266°
2026-05-07 13:06 51.38525 -2.70902 622 ft 0 kts 266°